Tracking 19827 objects as of 21-Aug-2019
HD Live streaming from Space Station
objects crossing your sky now

FENGYUN 1C DEB

Track FENGYUN 1C DEB now!
10-day predictions


NORAD ID: 31613
Int'l Code: 1999-025BZT
Perigee: 788.2 km
Apogee: 1,328.2 km
Inclination: 98.5 °
Period: 106.2 minutes
Semi major axis: 7429 km
RCS: 0.0083 m2 (small)
Launch date: May 10, 1999
Source: People's Republic of China (PRC)
Launch site: Taiyaun Space Center, China (TSC)

Note: This is SATELLITE DEBRIS
aabbcc
Your satellite tracking list
Your tracking list is empty




NASA's NSSDC Master Catalog

Two Line Element Set (TLE):
1 31613U 99025BZT 19233.23645365 -.00000002  00000-0  30054-4 0  9990
2 31613  98.4771 341.2808 0363445  32.5978 329.7047 13.55781262605011
Source of the keplerian elements: AFSPC